User: anonymous   Login
Location: Columbia
(38.9520°N, 92.3340°W)
Time: 02:38:16
(UTC-06:00)
Language:

CZ-4B R/B - Orbit

View from above orbital plane
View from above orbital plane
View from above satellite
View from above satellite

Ground track
Ground track

The orbit data is extracted from the following two-line orbital elements,

1 29093U 06015B   17018.22919975  .00002728  00000-0  68365-4 0  9997
2 29093  97.4874 125.7835 0067113 135.6851 224.9794 15.38678426594467
Epoch (UTC): 18 January 2017 05:30:02
Eccentricity: 0.0067113
inclination: 97.4874°
perigee height: 404 km
apogee height: 496 km
right ascension of ascending node: 125.7835°
argument of perigee: 135.6851°
revolutions per day: 15.38678426
mean anomaly at epoch: 224.9794°
orbit number at epoch: 59446

The dashed part of the orbit path shows where the satellite is in the earth's shadow,  

DLR